This is the latest recevied weather packets stored in our database for station/object RK6MF-10. If no packets are shown the sender has not sent any weather packets the latest 10 day(s).
| Time | Temp. | Humidity | Pressure | Rain* | Wind** | Luminosity | Snow |
|---|---|---|---|---|---|---|---|
| 1777915067 | 9.44° C | 90% | 1010.1 hPa | - | - | - | - |
| 1777914166 | 10° C | 88% | 1010 hPa | - | - | - | - |
| 1777913266 | 10° C | 82% | 1009.9 hPa | - | - | - | - |
| 1777912366 | 10° C | 77% | 1009.8 hPa | - | - | - | - |
| 1777911466 | 10.56° C | 71% | 1009.5 hPa | - | - | - | - |
| 1777910566 | 11.11° C | 64% | 1009.3 hPa | - | - | - | - |
| 1777909666 | 11.11° C | 61% | 1009.2 hPa | - | - | - | - |
| 1777908765 | 11.67° C | 58% | 1009.1 hPa | - | - | - | - |
| 1777907865 | 12.22° C | 56% | 1008.9 hPa | - | - | - | - |
| 1777906965 | 12.78° C | 53% | 1008.8 hPa | - | - | - | - |
| 1777906065 | 12.78° C | 53% | 1008.7 hPa | - | - | - | - |
| 1777905165 | 13.33° C | 53% | 1008.7 hPa | - | - | - | - |
| 1777904264 | 13.89° C | 51% | 1008.6 hPa | - | - | - | - |
| 1777902468 | 13.89° C | 48% | 1008.7 hPa | - | - | - | - |
| 1777901568 | 14.44° C | 47% | 1008.6 hPa | - | - | - | - |
| 1777900668 | 14.44° C | 47% | 1008.5 hPa | - | - | - | - |
| 1777899768 | 13.89° C | 47% | 1008.7 hPa | - | - | - | - |
| 1777898867 | 14.44° C | 47% | 1008.8 hPa | - | - | - | - |
| 1777897967 | 14.44° C | 47% | 1008.9 hPa | - | - | - | - |
| 1777897067 | 14.44° C | 48% | 1009.3 hPa | - | - | - | - |
| 1777896167 | 13.89° C | 49% | 1009.1 hPa | - | - | - | - |
| 1777895267 | 13.89° C | 49% | 1009.2 hPa | - | - | - | - |
| 1777894367 | 13.89° C | 50% | 1009.2 hPa | - | - | - | - |
| 1777893467 | 14.44° C | 47% | 1009.3 hPa | - | - | - | - |
| 1777892567 | 15° C | 47% | 1009.5 hPa | - | - | - | - |
* Rain since midnight (hover to see other rain measurements)
** Current wind speed in m/s (hover to see current wind gust speed)